Hourly Data Report for February 04, 2019

All times are specified in Local Standard Time (LST). Add 1 hour to adjust for Daylight Saving Time where and when it is observed.

VANCOUVER INTL A
BRITISH COLUMBIA
Current Station Operator: NAVCAN

49°11'41.000" N
123°11'02.000" W
4.30 m
1108395
71892
YVR

Download Data

Hourly Data (February 2019)
Hourly Data Report for February 4, 2019
TIME Temp Definition
°C
Dew Point Definition
°C
Rel Hum Definition
%
Wind Dir Definition
10's deg

Wind Spd Definition
km/h
Visibility Definition
km
Stn Press Definition
kPa
Hmdx Definition


Wind Chill Definition


Weather Definition


00:00 -4.2 -9.3 68 10 13 32.2 100.11   -9 LegendNANA
01:00 -4.3 -8.1 75 13 14 32.2 100.18   -9 Cloudy
02:00 -4.2 -11.3 58 7 14 32.2 100.27   -9 LegendNANA
03:00 -5.2 -8.3 79 14 10 24.1 100.32   -10 LegendNANA
04:00 -5.1 -8.2 79 14 11 24.1 100.36   -10 Cloudy
05:00 -5.1 -8.0 80 14 12 19.3 100.43   -10 Snow
06:00 -5.0 -8.3 77 10 9 12.9 100.47   -9 Snow
07:00 -4.7 -8.6 75 14 8 24.1 100.52   -8 Cloudy
08:00 -5.4 -9.1 75 17 13 24.1 100.61   -11 LegendNANA
09:00 -4.8 -9.1 72 13 12 32.2 100.66   -10 LegendNANA
10:00 -3.2 -9.9 60 14 11 32.2 100.74   -7 Mainly Clear
11:00 -2.9 -10.2 57 13 15 32.2 100.78   -8 LegendNANA
12:00 -2.6 -10.5 55 14 16 32.2 100.80   -8 LegendNANA
13:00 -2.1 -10.4 53 9 5 48.3 100.76   -4 Mostly Cloudy
14:00 -0.9 -9.3 53 10 5 48.3 100.73   -3 LegendNANA
15:00 -0.2 -9.6 49 36 12 48.3 100.73   -4 LegendNANA
16:00 0.0 -6.1 64 29 16 48.3 100.76   -5 Mainly Clear
17:00 -1.4 -6.4 69 28 13 48.3 100.79   -6 LegendNANA
18:00 -1.7 -8.6 59 32 18 48.3 100.81   -7 LegendNANA
19:00 -3.3 -10.0 60 12 13 32.2 100.84   -8 Clear
20:00 -5.0 -10.8 64 9 13 32.2 100.86   -10 LegendNANA
21:00 -5.1 -11.2 63 10 12 32.2 100.87   -10 LegendNANA
22:00 -5.3 -11.3 63 10 12 32.2 100.89   -10 Clear
23:00 -5.6 -11.9 61 11 14 32.2 100.91   -11 LegendNANA

Notes on Data Quality.

Legend

  • E = Estimated
  • M = Missing
  • NA = Not Available
Date modified: